Flag for Austria Weather past 2 weeks in Klagenfurt, Carinthia, Austria

Now
46 °F

Passing clouds.


Feels Like: 42 °F
Forecast: 31 / 56 °F
Wind: 9 mph from Northeast

Location: Klagenfurt-Flughafen

Current Time: Apr 18, 2015 at 9:33:12 PM

Latest Report: Apr 18, 2015 at 8:50 PM


Visibility: N/A

Pressure: 30.15 "Hg

Humidity: 43%

Dew point: 25 °F

Location of KlagenfurtLocation

Historic Weather in Klagenfurt — Graph

°F

Klagenfurt temperature yesterday

Maximum temperature yesterday: 63 °F (at 12:20 AM)
Minimum temperature yesterday: 50 °F (at 7:20 AM)
Average temperature yesterday: 57 °F

Past Weeks' High & Low Weather Summary

 TemperatureHumidityPressure
High77 °F (Apr 16, 2:50 PM)100% (Apr 12, 1:50 AM)30.45 "Hg (Apr 12, 1:50 AM)
Low27 °F (Apr 6, 4:50 AM)20% (Apr 3, 7:20 PM)29.83 "Hg (Apr 4, 5:20 PM)
Average50 °F58%30.17 "Hg
* Reported Apr 3 7:20 PM — Apr 18 7:50 PM, Klagenfurt, Weather by CustomWeather, © 2015

Note: Actual official high and low records may vary slightly from our data, if they occured in-between our weather recording intervals... More about our weather records

Advertising

Klagenfurt weather history for previous 24 hours

 ConditionsComfort  
Time TempWeatherWind HumidityBarometerVisibility
7:50 PM
Sat, Apr 18
48 °FPassing clouds.12 mph40%30.12 "HgN/A
7:20 PM48 °FPassing clouds.13 mph40%30.12 "HgN/A
6:50 PM50 °FPassing clouds.13 mph37%30.09 "HgN/A
6:20 PM50 °FPassing clouds.15 mph40%30.09 "HgN/A
5:50 PM50 °FScattered clouds.8 mph54%30.09 "HgN/A
5:20 PM50 °FPartly sunny.7 mph58%30.09 "HgN/A
4:50 PM50 °FPartly sunny.7 mph58%30.07 "HgN/A
4:20 PM50 °FBroken clouds.8 mph58%30.07 "HgN/A
3:50 PM48 °FBroken clouds.8 mph62%30.07 "HgN/A
3:20 PM46 °FBroken clouds.8 mph66%30.09 "HgN/A
2:50 PM46 °FPartly sunny.13 mph66%30.09 "HgN/A
2:20 PM45 °FPartly sunny.13 mph71%30.09 "HgN/A
1:50 PM45 °FPartly sunny.12 mph76%30.07 "HgN/A
1:20 PM45 °FSprinkles. Broken clouds.12 mph76%30.07 "HgN/A
12:50 PM43 °FSprinkles. Broken clouds.13 mph81%30.07 "HgN/A
12:20 PM43 °FSprinkles. Broken clouds.13 mph81%30.07 "HgN/A
11:50 AM43 °FSprinkles. Broken clouds.14 mph81%30.04 "HgN/A
11:20 AM45 °FSprinkles. Partly sunny.13 mph81%30.04 "HgN/A
10:50 AM46 °FBroken clouds.10 mph76%30.01 "HgN/A
10:20 AM46 °FLight rain. Broken clouds.8 mph82%30.01 "HgN/A
9:50 AM48 °FBroken clouds.8 mph82%29.98 "HgN/A
9:20 AM48 °FPartly sunny.9 mph82%29.98 "HgN/A
8:50 AM48 °FBroken clouds.8 mph87%29.95 "HgN/A
8:20 AM50 °FLight rain. Partly sunny.8 mph88%29.95 "HgN/A
7:50 AM50 °FLight rain. Broken clouds.5 mph94%29.95 "HgN/A
7:20 AM50 °FLight rain. Broken clouds.3 mph94%29.92 "HgN/A
6:50 AM48 °FLight rain. Partly cloudy.2 mph94%29.92 "HgN/A
6:20 AM48 °FLight rain. Passing clouds.2 mph94%29.92 "HgN/A
5:50 AM48 °FPassing clouds.2 mph94%29.92 "HgN/A
5:20 AM48 °FPartly cloudy.1 mph94%29.92 "HgN/A
4:50 AM48 °FOvercast.1 mph94%29.92 "HgN/A
4:20 AM50 °FPassing clouds.2 mph88%29.92 "HgN/A
3:50 AM50 °FPassing clouds.1 mph88%29.92 "HgN/A
3:20 AM50 °FPassing clouds.1 mph88%29.92 "HgN/A
2:50 AM48 °FPartly cloudy.2 mph94%29.92 "HgN/A
2:20 AM50 °FPartly cloudy.2 mph88%29.92 "HgN/A
1:50 AM50 °FPassing clouds.2 mph88%29.92 "HgN/A
1:20 AM52 °FPassing clouds.1 mph88%29.92 "HgN/A
12:50 AM52 °FPassing clouds.1 mph82%29.92 "HgN/A
12:20 AM52 °FPartly cloudy.2 mph88%29.89 "HgN/A
11:50 PM
Fri, Apr 17
52 °FPartly cloudy.1 mph88%29.89 "HgN/A
11:20 PM52 °FPassing clouds.1 mph88%29.89 "HgN/A
10:50 PM52 °FPartly cloudy.2 mph88%29.89 "HgN/A
10:20 PM52 °FPassing clouds.2 mph88%29.89 "HgN/A
9:50 PM52 °FPassing clouds.3 mph88%29.89 "HgN/A
9:20 PM54 °FSprinkles. Passing clouds.1 mph82%29.89 "HgN/A
Weather by CustomWeather, © 2015

See weather overviewHow to use our weather pages